Regional Weather Roundup
Issued by NWS

Home | Current Version | Previous Version | Graphics & Text | Print | Product List | Glossary On
Versions: 1 2 3 4 5 6 7 8 9 10 11 12 13 14 15 16 17 18 19 20 21 22 23 24 25 26 27 28 29 30 31 32 33 34 35 36 37 38 39 40 41 42 43 44 45 46 47 48 49 50
000
ASUS43 KDMX 290507
RWRIA

WEATHER ROUNDUP FOR IOWA
NATIONAL WEATHER SERVICE DES MOINES IA
1200 AM CDT FRI AUG 29 2014

NOTE: "FAIR" INDICATES FEW OR NO CLOUDS BELOW 12,000 FEET WITH NO
SIGNIFICANT WEATHER AND/OR OBSTRUCTIONS TO VISIBILITY.

* - THESE STATIONS ARE NOT NWS STATIONS...THUS NOT UNDER NWS
QUALITY CONTROL.  THEY ALSO DO NOT REPORT WEATHER SUCH
AS PRECIPITATION OR FOG.

IAZ001>003-012>014-020>022-031>034-043>046-290600-
   NORTHWEST IOWA

CITY           SKY/WX    TMP DP  RH WIND       PRES   REMARKS
CARROLL *      CLOUDY    70  68  94 SE9       29.88F
DENISON *      CLEAR     70  68  94 S12       29.84S
LE MARS *      PTCLDY    73  72  94 SE9       29.82F
ORANGE CITY *  PTCLDY    73  70  88 S6        29.83F FOG
SHELDON *      MOCLDY    72  72 100 SE9       29.83F
SIOUX CITY     MOCLDY    73  71  93 SE6       29.82F
SPENCER        CLOUDY    73  71  93 SE8       29.86F FOG
STORM LAKE *   MOCLDY    72  72 100 SE12      29.85F FOG
$$

IAZ055>058-069>071-079>083-090>094-290600-
   SOUTHWEST IOWA

CITY           SKY/WX    TMP DP  RH WIND       PRES   REMARKS
ATLANTIC *     CLOUDY    70  64  83 S3        29.88S
AUDUBON *      PTCLDY    72  66  83 S8        29.90F
CLARINDA *     CLEAR     72  72 100 CALM      29.89S
COUNCIL BLFS * PTCLDY    70  70 100 E6        29.85F
CRESTON *      LGT RAIN  68  66  94 N13G18    29.93S
HARLAN  *      MOCLDY    70  68  94 SE5       29.90F
LAMONI         PTCLDY    75  72  90 SE10      29.90F
RED OAK *      CLOUDY    73  70  88 CALM      29.87S
SHENANDOAH *   CLEAR     73  72  94 E3        29.87S
$$

IAZ047>049-059>061-072>074-084-290600-
   CENTRAL IOWA

CITY           SKY/WX    TMP DP  RH WIND       PRES   REMARKS
AMES           LGT RAIN  68  68 100 S7        29.94S
ANKENY *       HVY RAIN  70  68  94 CALM      29.93F
CHARITON *     CLOUDY    72  70  94 SE12      29.92S
DES MOINES     CLOUDY    70  68  93 E3        29.92F
GRINNELL*      MOCLDY    68  66  94 E7        29.94S
KNOXVILLE *    MOCLDY    70  70 100 NW7       29.93R
MARSHALLTOWN   CLOUDY    70  68  93 SE12      29.93R
PELLA *        CLOUDY    69  69  98 SE9       29.93F FOG
PERRY *        LGT RAIN  68  68 100 S9        29.92R
$$

IAZ004>006-015-016-023>025-035-036-290600-
   NORTH CENTRAL IOWA

CITY           SKY/WX    TMP DP  RH WIND       PRES   REMARKS
ALGONA *       DRIZZLE   72  72 100 SE10G20   29.88S
CLARION *      CLOUDY    72  72 100 S9G16     29.90S
ESTHERVILLE    HVY RAIN  71  70  96 S9        29.86F FOG
FORT DODGE *   CLOUDY    72  70  94 S9        29.89F
MASON CITY     CLOUDY    69  69 100 S14G20    29.92S
FOREST CITY *  CLOUDY    70  70 100 SE10      29.90R FOG
IOWA FALLS *   HVY RAIN  70  68  94 S12       29.96R
$$

IAZ007>011-017>019-026>030-037>042-050>054-066-290600-
   NORTHEAST IOWA

CITY           SKY/WX    TMP DP  RH WIND       PRES   REMARKS
CEDAR RAPIDS   MOCLDY    68  68 100 SE7       29.95F FOG
CHARLES CITY * CLOUDY    68  68 100 SE12      29.93S FOG
CLINTON *      PTCLDY    66  64  94 SE10      30.00F
DECORAH *      CLOUDY    68  66  94 S10G16    29.94F
DUBUQUE        PTCLDY    66  65  96 SE9       29.99S
MONTICELLO *   CLOUDY    68  68 100 SE6       29.97S
OELWEIN *      CLOUDY    68  68 100 S16G22    29.96F FOG
WATERLOO       CLOUDY    70  67  90 SE15      29.92F
$$

IAZ064-065-067-068-078-290600-
   EAST CENTRAL IOWA

CITY           SKY/WX    TMP DP  RH WIND       PRES   REMARKS
DAVENPORT      PTCLDY    68  66  93 SE8       29.98F
IOWA CITY      CLEAR     68  67  96 SE5       29.97S
MT. PLEASANT * PTCLDY    70  68  94 SE12      29.96S
MUSCATINE *    CLEAR     70  68  94 SE3       29.97R
QUAD CITIES    PTCLDY    69  66  90 SE7       29.97F
$$

IAZ062-063-075>077-085>089-095>099-290600-
   SOUTHEAST IOWA

CITY           SKY/WX    TMP DP  RH WIND       PRES   REMARKS
BURLINGTON     MOCLDY    71  69  93 SE7       29.97S
FAIRFIELD *    PTCLDY    70  68  94 SE10      29.96R
FORT MADISON * CLEAR     72  70  94 SE3       29.97F
KEOKUK *       CLEAR     72  70  94 SE9G16    29.95F
OSKALOOSA *      N/A     68  68 100 SE7       29.95S
CENTERVILLE *  PTCLDY    72  72 100 SE9       29.96R
OTTUMWA        CLEAR     69  67  93 SE7       29.95R
WASHINGTON *   PTCLDY    70  70 100 SE8       29.96R
$$

ABBREVIATIONS USED IN REMARKS
   TC - TEMPERATURES IN CELSIUS
  WCI - WIND CHILL INDEX
   HX - HEAT INDEX
  VSB - VISIBILITY
$$



USA.gov is the U.S. government's official web portal to all federal, state and local government web resources and services.